TimeEST,TemperatureF,Dew PointF,Humidity,Sea Level PressureIn,VisibilityMPH,Wind Direction,Wind SpeedMPH,Gust SpeedMPH,PrecipitationIn,Events,Conditions,WindDirDegrees,DateUTC
12:00 AM,35.6,24.8,65,30.17,25.0,SSW,5.8,-,N/A,,Mostly Cloudy,200,2011-11-19 05:00:00
1:00 AM,35.6,24.8,65,30.16,25.0,South,8.1,-,N/A,,Mostly Cloudy,190,2011-11-19 06:00:00
2:00 AM,33.8,24.8,70,30.16,25.0,SSE,5.8,-,N/A,,Mostly Cloudy,160,2011-11-19 07:00:00
3:00 AM,32.0,24.8,75,30.16,25.0,SSE,4.6,-,N/A,,Scattered Clouds,160,2011-11-19 08:00:00
4:00 AM,32.0,24.8,75,30.15,25.0,SSE,4.6,-,N/A,,Mostly Cloudy,160,2011-11-19 09:00:00
5:00 AM,33.8,26.6,75,30.15,25.0,South,3.5,-,N/A,,Mostly Cloudy,190,2011-11-19 10:00:00
6:00 AM,33.8,26.6,75,30.14,25.0,South,5.8,-,N/A,,Overcast,190,2011-11-19 11:00:00
7:00 AM,33.8,26.6,75,30.15,25.0,SSE,2.3,-,N/A,,Mostly Cloudy,160,2011-11-19 12:00:00
8:00 AM,33.8,24.8,70,30.15,35.0,South,3.5,-,N/A,,Mostly Cloudy,170,2011-11-19 13:00:00
9:00 AM,37.4,26.6,65,30.14,45.0,South,3.5,-,N/A,,Mostly Cloudy,180,2011-11-19 14:00:00
10:00 AM,42.8,26.6,53,30.12,45.0,South,4.6,-,N/A,,Mostly Cloudy,180,2011-11-19 15:00:00
11:00 AM,44.6,26.6,49,30.13,45.0,WSW,6.9,-,N/A,,Overcast,240,2011-11-19 16:00:00
12:00 PM,46.4,26.6,46,30.10,45.0,SSW,9.2,-,N/A,,Mostly Cloudy,210,2011-11-19 17:00:00
1:00 PM,46.4,24.8,43,30.08,45.0,SW,9.2,18.4,N/A,,Mostly Cloudy,220,2011-11-19 18:00:00
2:00 PM,48.2,26.6,43,30.06,45.0,SSW,8.1,-,N/A,,Mostly Cloudy,210,2011-11-19 19:00:00
3:00 PM,48.2,28.4,46,30.06,45.0,South,6.9,-,N/A,,Mostly Cloudy,190,2011-11-19 20:00:00
4:00 PM,48.2,26.6,43,30.05,45.0,South,8.1,-,N/A,,Mostly Cloudy,190,2011-11-19 21:00:00
5:00 PM,44.6,26.6,49,30.06,25.0,South,8.1,-,N/A,,Scattered Clouds,180,2011-11-19 22:00:00
6:00 PM,42.8,28.4,57,30.05,25.0,South,8.1,-,N/A,,Scattered Clouds,170,2011-11-19 23:00:00
7:00 PM,41.0,30.2,65,30.04,25.0,South,6.9,-,N/A,,Mostly Cloudy,170,2011-11-20 00:00:00
8:00 PM,41.0,30.2,65,30.02,25.0,SSE,8.1,-,N/A,,Mostly Cloudy,160,2011-11-20 01:00:00
9:00 PM,41.0,30.2,65,30.02,25.0,South,3.5,-,N/A,,Mostly Cloudy,190,2011-11-20 02:00:00
10:00 PM,44.6,30.2,57,30.00,25.0,SSW,5.8,-,N/A,,Mostly Cloudy,200,2011-11-20 03:00:00
11:00 PM,46.4,30.2,53,29.98,25.0,SW,9.2,-,N/A,,Overcast,220,2011-11-20 04:00:00